Ogdensburg, NY

1:27 PM EDT on October 15, 2019 (GMT -0400)
Ogdensburg International

Weather History for KOGS - August, 2019

Change the Weather History Date:

Friday, August 23, 2019

  Actual Average Record
Temperature  
Mean Temperature 63 °F -  
Max Temperature 71 °F 76 °F 89 °F (1974)
Min Temperature 55 °F 54 °F 39 °F (1975)
Degree Days  
Heating Degree Days 2    
Growing Degree Days 13 (Base 50)    
Moisture  
Dew Point 51 °F    
Average Humidity 66    
Maximum Humidity 88    
Minimum Humidity 43    
Precipitation  
Precipitation 0.00 in - - ()
Sea Level Pressure  
Sea Level Pressure 30.04 in    
Wind  
Wind Speed 5 mph ()    
Max Wind Speed 15 mph    
Max Gust Speed 21 mph    
Visibility 10.0 miles    
Events      
Averages and records for this station are not official NWS values.
T = Trace of Precipitation, MM = Missing Value Source: Averaged Metar Reports

Daily Weather History Graph

Daily Weather History Graph

Search for Another Location

Airport or City:

Astronomy

Aug. 23, 2019 Rise Set
Actual Time 6:13 AM EDT 7:54 PM EDT
Civil Twilight 5:42 AM EDT 8:25 PM EDT
Nautical Twilight 5:04 AM EDT 9:03 PM EDT
Astronomical Twilight 4:24 AM EDT 9:43 PM EDT
Moon No Moon Rise 2:06 PM EDT (8/23)
Length of Visible Light 14h 43m
Length of Day
13h 41m
Waning Gibbous, 50% of the Moon is Illuminated
Aug 23
Waning Gibbous
Aug 30
New
Sep 5
First Quarter
Sep 14
Full
Sep 21
Last Quarter

Hourly Weather History & Observations

Time (EDT) Temp. Dew Point Humidity Pressure Visibility Wind Dir Wind Speed Gust Speed Precip Events Conditions
12:15 AM 64.4 °F 51.8 °F 64% 29.92 in 10.0 mi NW 3.5 mph - N/A   Clear
12:35 AM 62.6 °F 51.8 °F 68% 29.93 in 10.0 mi NNW 4.6 mph - N/A   Clear
12:55 AM 62.6 °F 51.8 °F 68% 29.93 in 10.0 mi Variable 4.6 mph - N/A   Clear
1:15 AM 62.6 °F 51.8 °F 68% 29.94 in 10.0 mi NW 4.6 mph - N/A   Clear
1:35 AM 60.8 °F 51.8 °F 72% 29.95 in 10.0 mi NW 5.8 mph - N/A   Clear
1:55 AM 60.8 °F 51.8 °F 72% 29.95 in 10.0 mi NW 5.8 mph - N/A   Clear
2:15 AM 59.0 °F 51.8 °F 77% 29.95 in 10.0 mi NW 6.9 mph - N/A   Clear
2:35 AM 59.0 °F 51.8 °F 77% 29.95 in 10.0 mi NW 6.9 mph - N/A   Clear
2:55 AM 59.0 °F 51.8 °F 77% 29.95 in 10.0 mi NW 6.9 mph - N/A   Clear
3:15 AM 59.0 °F 51.8 °F 77% 29.95 in 10.0 mi NW 4.6 mph - N/A   Clear
3:35 AM 57.2 °F 51.8 °F 82% 29.96 in 10.0 mi Calm Calm - N/A   Clear
3:55 AM 55.4 °F 51.8 °F 88% 29.96 in 10.0 mi Calm Calm - N/A   Clear
4:15 AM 57.2 °F 51.8 °F 82% 29.96 in 10.0 mi NW 4.6 mph - N/A   Clear
4:35 AM 55.4 °F 51.8 °F 88% 29.97 in 10.0 mi Variable 5.8 mph - N/A   Clear
4:55 AM 55.4 °F 51.8 °F 88% 29.97 in 10.0 mi Variable 3.5 mph - N/A   Partly Cloudy
5:15 AM 55.4 °F 51.8 °F 88% 29.98 in 10.0 mi NW 5.8 mph - N/A   Partly Cloudy
5:35 AM 55.4 °F 51.8 °F 88% 29.99 in 10.0 mi NNW 5.8 mph - N/A   Clear
5:55 AM 55.4 °F 51.8 °F 88% 29.99 in 10.0 mi NNW 5.8 mph - N/A   Partly Cloudy
6:15 AM 55.4 °F 51.8 °F 88% 30.00 in 10.0 mi Variable 4.6 mph - N/A   Clear
6:35 AM 55.4 °F 51.8 °F 88% 30.01 in 10.0 mi Calm Calm - N/A   Clear
6:55 AM 55.4 °F 51.8 °F 88% 30.02 in 10.0 mi Calm Calm - N/A   Clear
7:15 AM 55.4 °F 51.8 °F 88% 30.03 in 10.0 mi Variable 4.6 mph - N/A   Clear
7:35 AM 57.2 °F 51.8 °F 82% 30.03 in 10.0 mi North 8.1 mph - N/A   Clear
7:55 AM 57.2 °F 53.6 °F 88% 30.04 in 10.0 mi North 5.8 mph - N/A   Clear
8:15 AM 59.0 °F 53.6 °F 82% 30.04 in 10.0 mi Variable 4.6 mph - N/A   Clear
8:35 AM 60.8 °F 53.6 °F 77% 30.04 in 10.0 mi Variable 4.6 mph - N/A   Clear
8:55 AM 60.8 °F 53.6 °F 77% 30.05 in 10.0 mi Variable 6.9 mph - N/A   Clear
9:15 AM 62.6 °F 53.6 °F 72% 30.05 in 10.0 mi North 5.8 mph - N/A   Clear
9:35 AM 64.4 °F 51.8 °F 64% 30.05 in 10.0 mi North 6.9 mph - N/A   Clear
9:55 AM 64.4 °F 51.8 °F 64% 30.05 in 10.0 mi NNE 5.8 mph - N/A   Clear
10:15 AM 66.2 °F 51.8 °F 60% 30.05 in 10.0 mi Variable 3.5 mph - N/A   Clear
10:35 AM 66.2 °F 53.6 °F 64% 30.05 in 10.0 mi Calm Calm 11.5 mph N/A   Clear
11:15 AM 68.0 °F 53.6 °F 60% 30.06 in 10.0 mi Variable 4.6 mph 13.8 mph N/A   Partly Cloudy
11:35 AM 68.0 °F 51.8 °F 56% 30.06 in 10.0 mi Variable 5.8 mph 12.7 mph N/A   Clear
11:55 AM 69.8 °F 51.8 °F 53% 30.05 in 10.0 mi North 6.9 mph - N/A   Clear
12:15 PM 69.8 °F 51.8 °F 53% 30.05 in 10.0 mi WNW 9.2 mph - N/A   Clear
12:35 PM 71.6 °F 50.0 °F 46% 30.04 in 10.0 mi NNW 10.4 mph 16.1 mph N/A   Clear
12:55 PM 69.8 °F 50.0 °F 49% 30.04 in 10.0 mi Variable 6.9 mph 15.0 mph N/A   Clear
1:15 PM 71.6 °F 50.0 °F 46% 30.04 in 10.0 mi NNW 10.4 mph - N/A   Clear
1:35 PM 71.6 °F 51.8 °F 50% 30.05 in 10.0 mi NW 9.2 mph 16.1 mph N/A   Clear
1:55 PM 71.6 °F 50.0 °F 46% 30.05 in 10.0 mi NNW 8.1 mph 16.1 mph N/A   Clear
2:15 PM 71.6 °F 50.0 °F 46% 30.05 in 10.0 mi NW 9.2 mph 16.1 mph N/A   Clear
2:35 PM 71.6 °F 48.2 °F 43% 30.06 in 10.0 mi WNW 15.0 mph 20.7 mph N/A   Clear
2:55 PM 69.8 °F 50.0 °F 49% 30.05 in 10.0 mi NNW 9.2 mph - N/A   Clear
3:15 PM 69.8 °F 50.0 °F 49% 30.05 in 10.0 mi NNW 10.4 mph - N/A   Clear
3:35 PM 69.8 °F 50.0 °F 49% 30.06 in 10.0 mi Variable 4.6 mph - N/A   Clear
3:55 PM 69.8 °F 50.0 °F 49% 30.06 in 10.0 mi NNW 5.8 mph 15.0 mph N/A   Clear
4:15 PM 69.8 °F 50.0 °F 49% 30.06 in 10.0 mi Variable 6.9 mph - N/A   Clear
4:35 PM 68.0 °F 50.0 °F 52% 30.06 in 10.0 mi North 10.4 mph - N/A   Clear
4:55 PM 69.8 °F 48.2 °F 46% 30.06 in 10.0 mi NNW 8.1 mph 15.0 mph N/A   Clear
5:15 PM 69.8 °F 48.2 °F 46% 30.06 in 10.0 mi North 9.2 mph - N/A   Clear
5:35 PM 68.0 °F 48.2 °F 49% 30.07 in 10.0 mi North 10.4 mph - N/A   Clear
5:55 PM 68.0 °F 46.4 °F 46% 30.07 in 10.0 mi North 5.8 mph - N/A   Clear
6:15 PM 68.0 °F 46.4 °F 46% 30.08 in 10.0 mi NNW 8.1 mph - N/A   Clear
6:35 PM 68.0 °F 48.2 °F 49% 30.07 in 10.0 mi North 8.1 mph - N/A   Clear
6:55 PM 66.2 °F 46.4 °F 49% 30.08 in 10.0 mi NNW 8.1 mph - N/A   Clear
7:15 PM 66.2 °F 48.2 °F 52% 30.09 in 10.0 mi NNW 9.2 mph - N/A   Clear
7:35 PM 64.4 °F 48.2 °F 56% 30.09 in 10.0 mi NNW 8.1 mph - N/A   Clear
7:55 PM 64.4 °F 48.2 °F 56% 30.09 in 10.0 mi NNW 5.8 mph - N/A   Clear
8:15 PM 62.6 °F 48.2 °F 59% 30.10 in 10.0 mi NNW 4.6 mph - N/A   Clear
8:35 PM 60.8 °F 48.2 °F 63% 30.10 in 10.0 mi Variable 3.5 mph - N/A   Partly Cloudy
8:55 PM 59.0 °F 50.0 °F 72% 30.10 in 10.0 mi Calm Calm - N/A   Partly Cloudy
9:15 PM 60.8 °F 48.2 °F 63% 30.11 in 10.0 mi NNW 4.6 mph - N/A   Clear
9:35 PM 60.8 °F 48.2 °F 63% 30.11 in 10.0 mi NNW 5.8 mph - N/A   Clear
9:55 PM 60.8 °F 50.0 °F 68% 30.11 in 10.0 mi North 5.8 mph - N/A   Clear
10:15 PM 60.8 °F 50.0 °F 68% 30.11 in 10.0 mi North 5.8 mph - N/A   Clear
10:35 PM 60.8 °F 50.0 °F 68% 30.11 in 10.0 mi North 5.8 mph - N/A   Clear
10:55 PM 59.0 °F 50.0 °F 72% 30.12 in 10.0 mi North 5.8 mph - N/A   Partly Cloudy
11:15 PM 57.2 °F 50.0 °F 77% 30.12 in 10.0 mi North 5.8 mph - N/A   Clear
11:35 PM 57.2 °F 50.0 °F 77% 30.13 in 10.0 mi North 5.8 mph - N/A   Partly Cloudy
11:55 PM 57.2 °F 50.0 °F 77% 30.13 in 10.0 mi North 5.8 mph - N/A   Partly Cloudy